Tracking 27111 objects as of 29-Mar-2023
HD Live streaming from Space Station
objects crossing your sky now

FLOCK 4Y 9

Track FLOCK 4Y 9 now!
10-day predictions
FLOCK 4Y 9 is classified as:


NORAD ID: 55069
Int'l Code: 2023-001BN
Perigee: 516.1 km
Apogee: 533.9 km
Inclination: 97.5 °
Period: 95.0 minutes
Semi major axis: 6895 km
RCS: Unknown
Launch date: January 3, 2023
Source: United States (US)
Launch site: AIR FORCE EASTERN TEST RANGE (AFETR)
Your satellite tracking list
Your tracking list is empty




NASA's NSSDC Master Catalog

Two Line Element Set (TLE):
1 55069U 23001BN  23087.71555525  .00013021  00000-0  67880-3 0  9995
2 55069  97.4881 148.5916 0012857 295.0234  64.9663 15.16029688 12885
Source of the keplerian elements: AFSPC